Showing default

ICEYE-X40, 60549

Orbit data source: Space-Track

ICEYE-X40, 60549 is a payload satellite owned by Yahsat (AE) in SSO that was launched on Fri, 16 Aug 2024 UTC via an FALCON 9 launch vehicle from the Air Force Western Test Range (AFWTR). Payload-class satellites include a variety of spacecraft equipped with specific instruments for various scientific and technological missions. These include communications satellites like Starlink; space stations such as the ISS; scientific satellites like the Hubble; Earth observation satellites from companies like Planet Labs, Umbra, and HawkEye 360; GPS; miniature CubeSats for education and research; and military/defense satellites.

Loading next visibility...
Identifier
60549, 2024-149CK
Orbit
SSO
Country
Flag of AEAE / UAE
Related business
Manufacturer
ICEYE
Mission
Operational Commercial Radar Imaging
Bus & Motor
ICEYE, Unknown motor
Mass
80 kg wet, 80 kg dry
Launch date (UTC)
2024-08-16 (2 years ago)
Launch vehicle
FALCON 9
Launch site
Air Force Western Test Range (AFWTR)
Object type
Payload
Rocket body
Debris
Shape & HBR
Box + 1 Pan, 2.4 m
Radar Cross Section
0.776 m², Medium (>0.1 m² and < 1m²)

Expand to show TLE details & history
Last TLE update: 19 hours ago

TLE from 19 hours ago
0 ICEYE-X40
1 60549U 24149CK  26111.65265342  .00000656  00000-0  60891-4 0  9993
2 60549  97.6825 189.0624 0003231 267.4803  92.6049 14.97751122 91618
Epoch: 2026-04-21T15:39Z
TLE epoch observation values (Epoch: 2026-04-21T15:39:49.255Z)
Latitude
-0.00006°
Longitude
104.38182°
Altitude
577.002 km
Speed
7.572 km/s
True Right ascension
12h 36m 14s
True Declination
0° 00' 00"
Sunlit
Object was in full shadow at epoch
Visualization orbit readout
Latitude
Unknown
Longitude
Unknown
Altitude
Unknown
Speed
Unknown
Apparent Right ascension
Unknown
Apparent Declination
Unknown
Sunlit
N/A
Visualization observer readout
Local Sidereal Time
18:01:40
Azimuth
Unknown
Elevation
Unknown
Doppler factor
Unknown
Orbital elements
Apogee altitude
573.099 km
Perigee altitude
568.609 km
Semi-major axis
6,948.991 km
Eccentricity
0.00032
Inclination
97.6825°
RAAN
189.0624°
Arg. of periapsis
267.4803°
True anomaly
92.64189°
Mean anomaly
92.6049°
Eccentric anomaly
92.62339°
Mean motion
3.7468 °/min
Orbital period
96.08 mins
BSTAR
0.000060891
Loading maneuver chart data...
Computing Atmospheric mass density...
Loading historical data...
Loading historical data...
Loading historical data...
Loading historical data...
Loading historical data...
Loading historical data...
Loading historical data...

Documentation

Showing up to 5 results
|